Clinton, OK

12:22 AM CDT on August 20, 2017 (GMT -0500)
Clinton Municipal

Weather History for KCLK - May, 2013

Change the Weather History Date:

Saturday, May 25, 2013

  Actual Average (KCSM) Record (KCSM)
Temperature  
Mean Temperature 71 °F -  
Max Temperature 82 °F 82 °F 99 °F (2006)
Min Temperature 60 °F 58 °F 46 °F (2001)
Cooling Degree Days 6    
Growing Degree Days 21 (Base 50)    
Moisture  
Dew Point 59 °F    
Average Humidity 67    
Maximum Humidity 83    
Minimum Humidity 42    
Precipitation  
Precipitation 0.00 in - - ()
Sea Level Pressure  
Sea Level Pressure 30.07 in    
Wind  
Wind Speed 11 mph (SSE)    
Max Wind Speed 24 mph    
Max Gust Speed 31 mph    
Visibility 10 miles    
Events      
Averages and records for this station are not official NWS values.
T = Trace of Precipitation, MM = Missing Value Source: NWS Daily Summary

Daily Weather History Graph

Daily Weather History Graph

Search for Another Location

Airport or City:

Trip Planner

Search our weather history database for the weather conditions in past years. The results will help you decide how hot, cold, wet, or windy it might be!

Date:

Astronomy

May. 25, 2013 Rise Set
Actual Time 6:24 AM CDT 8:41 PM CDT
Civil Twilight 5:55 AM CDT 9:10 PM CDT
Nautical Twilight 5:19 AM CDT 9:46 PM CDT
Astronomical Twilight 4:40 AM CDT 10:25 PM CDT
Moon 9:31 PM CDT (5/25) 6:52 AM CDT (5/25)
Length of Visible Light 15h 15m
Length of Day
14h 17m
Full, 100% of the Moon is Illuminated
May 25
Full
May 31
Last Quarter
Jun 8
New
Jun 16
First Quarter
Jun 23
Full

Hourly Weather History & Observations

Time (CDT) Temp. Heat Index Dew Point Humidity Pressure Visibility Wind Dir Wind Speed Gust Speed Precip Events Conditions
12:15 AM 68.0 °F - 59.0 °F 73% 30.12 in 10.0 mi South 6.9 mph - N/A   Clear
12:35 AM 66.2 °F - 59.0 °F 78% 30.13 in 10.0 mi South 9.2 mph - N/A   Scattered Clouds
12:55 AM 66.2 °F - 57.2 °F 73% 30.13 in 10.0 mi SSW 6.9 mph - N/A   Clear
1:15 AM 64.4 °F - 57.2 °F 77% 30.13 in 10.0 mi South 5.8 mph - N/A   Clear
1:35 AM 64.4 °F - 57.2 °F 77% 30.13 in 10.0 mi SSE 6.9 mph - N/A   Clear
1:55 AM 64.4 °F - 57.2 °F 77% 30.12 in 10.0 mi SSE 8.1 mph - N/A   Clear
2:15 AM 62.6 °F - 55.4 °F 77% 30.13 in 10.0 mi SSE 6.9 mph - N/A   Clear
2:35 AM 62.6 °F - 57.2 °F 82% 30.14 in 10.0 mi SSE 9.2 mph - N/A   Clear
2:55 AM 62.6 °F - 55.4 °F 77% 30.14 in 10.0 mi SSE 9.2 mph - N/A   Clear
3:15 AM 62.6 °F - 55.4 °F 77% 30.14 in 10.0 mi South 12.7 mph - N/A   Clear
3:35 AM 62.6 °F - 55.4 °F 77% 30.12 in 10.0 mi South 6.9 mph - N/A   Clear
3:55 AM 60.8 °F - 55.4 °F 82% 30.12 in 10.0 mi South 8.1 mph - N/A   Clear
4:15 AM 60.8 °F - 55.4 °F 82% 30.12 in 10.0 mi South 5.8 mph - N/A   Clear
4:35 AM 60.8 °F - 55.4 °F 82% 30.11 in 10.0 mi South 6.9 mph - N/A   Clear
4:55 AM 60.8 °F - 55.4 °F 82% 30.11 in 10.0 mi South 8.1 mph - N/A   Clear
5:15 AM 60.8 °F - 55.4 °F 82% 30.11 in 10.0 mi South 6.9 mph - N/A   Clear
5:35 AM 60.8 °F - 55.4 °F 82% 30.11 in 10.0 mi SSW 8.1 mph - N/A   Clear
5:55 AM 60.8 °F - 55.4 °F 82% 30.11 in 10.0 mi SSW 8.1 mph - N/A   Clear
6:15 AM 60.8 °F - 55.4 °F 82% 30.10 in 10.0 mi SSW 5.8 mph - N/A   Clear
6:35 AM 60.8 °F - 55.4 °F 82% 30.09 in 10.0 mi SSW 5.8 mph - N/A   Clear
6:55 AM 62.6 °F - 55.4 °F 77% 30.10 in 10.0 mi SW 4.6 mph - N/A   Clear
7:15 AM 62.6 °F - 55.4 °F 77% 30.11 in 10.0 mi West 6.9 mph - N/A   Clear
7:35 AM 62.6 °F - 55.4 °F 77% 30.11 in 10.0 mi South 4.6 mph - N/A   Clear
7:55 AM 64.4 °F - 57.2 °F 77% 30.13 in 10.0 mi SE 6.9 mph - N/A   Clear
8:15 AM 64.4 °F - 57.2 °F 77% 30.12 in 10.0 mi SE 10.4 mph - N/A   Clear
8:35 AM 66.2 °F - 57.2 °F 73% 30.12 in 10.0 mi SSE 11.5 mph - N/A   Mostly Cloudy
8:55 AM 68.0 °F - 55.4 °F 64% 30.11 in 10.0 mi SSE 11.5 mph - N/A   Mostly Cloudy
9:15 AM 69.8 °F - 57.2 °F 64% 30.12 in 10.0 mi SSE 9.2 mph - N/A   Scattered Clouds
9:35 AM 69.8 °F - 57.2 °F 64% 30.13 in 10.0 mi South 9.2 mph - N/A   Scattered Clouds
9:55 AM 69.8 °F - 57.2 °F 64% 30.14 in 10.0 mi SSE 12.7 mph - N/A   Mostly Cloudy
10:15 AM 71.6 °F - 57.2 °F 60% 30.14 in 10.0 mi SSE 17.3 mph 21.9 mph N/A   Overcast
10:35 AM 71.6 °F - 59.0 °F 64% 30.13 in 10.0 mi SSE 18.4 mph - N/A   Mostly Cloudy
10:55 AM 73.4 °F - 59.0 °F 61% 30.12 in 10.0 mi SSE 17.3 mph - N/A   Scattered Clouds
11:15 AM 75.2 °F - 59.0 °F 57% 30.12 in 10.0 mi SSE 19.6 mph 25.3 mph N/A   Scattered Clouds
11:35 AM 77.0 °F - 59.0 °F 54% 30.12 in 10.0 mi South 20.7 mph 25.3 mph N/A   Scattered Clouds
11:55 AM 77.0 °F - 59.0 °F 54% 30.12 in 10.0 mi SSE 17.3 mph 20.7 mph N/A   Mostly Cloudy
12:15 PM 77.0 °F - 59.0 °F 54% 30.12 in 10.0 mi South 18.4 mph - N/A   Scattered Clouds
12:35 PM 77.0 °F - 59.0 °F 54% 30.12 in 10.0 mi SSE 18.4 mph 25.3 mph N/A   Clear
12:55 PM 77.0 °F - 60.8 °F 57% 30.11 in 10.0 mi SSE 17.3 mph - N/A   Clear
1:15 PM 77.0 °F - 60.8 °F 57% 30.10 in 10.0 mi SSE 16.1 mph 23.0 mph N/A   Clear
1:35 PM 78.8 °F - 60.8 °F 54% 30.09 in 10.0 mi South 19.6 mph 24.2 mph N/A   Scattered Clouds
1:55 PM 78.8 °F - 59.0 °F 51% 30.07 in 10.0 mi South 19.6 mph 26.5 mph N/A   Scattered Clouds
2:15 PM 78.8 °F - 60.8 °F 54% 30.07 in 10.0 mi South 18.4 mph 25.3 mph N/A   Scattered Clouds
2:35 PM 80.6 °F 81.1 °F 59.0 °F 48% 30.05 in 10.0 mi South 20.7 mph 26.5 mph N/A   Scattered Clouds
2:55 PM 82.4 °F 82.0 °F 57.2 °F 42% 30.04 in 10.0 mi South 17.3 mph 27.6 mph N/A   Clear
3:15 PM 80.6 °F 81.1 °F 59.0 °F 48% 30.04 in 10.0 mi SSE 19.6 mph 29.9 mph N/A   Scattered Clouds
3:35 PM 82.4 °F 82.5 °F 59.0 °F 45% 30.04 in 10.0 mi SSE 20.7 mph 28.8 mph N/A   Scattered Clouds
3:55 PM 82.4 °F 82.0 °F 57.2 °F 42% 30.03 in 10.0 mi SSE 21.9 mph 27.6 mph N/A   Clear
4:15 PM 82.4 °F 82.0 °F 57.2 °F 42% 30.02 in 10.0 mi South 18.4 mph 29.9 mph N/A   Clear
4:35 PM 80.6 °F 81.1 °F 59.0 °F 48% 30.02 in 10.0 mi SSE 21.9 mph 27.6 mph N/A   Clear
5:15 PM 80.6 °F 81.5 °F 60.8 °F 51% 30.01 in 10.0 mi SE 24.2 mph 28.8 mph N/A   Scattered Clouds
5:35 PM 80.6 °F 81.5 °F 60.8 °F 51% 30.01 in 10.0 mi SE 21.9 mph 28.8 mph N/A   Clear
5:55 PM 80.6 °F 81.1 °F 59.0 °F 48% 30.01 in 10.0 mi SSE 20.7 mph 28.8 mph N/A   Clear
6:15 PM 80.6 °F 81.1 °F 59.0 °F 48% 29.99 in 10.0 mi SSE 20.7 mph 31.1 mph N/A   Clear
6:35 PM 78.8 °F - 59.0 °F 51% 29.98 in 10.0 mi SSE 23.0 mph 28.8 mph N/A   Clear
6:55 PM 78.8 °F - 59.0 °F 51% 29.98 in 10.0 mi SE 20.7 mph 26.5 mph N/A   Scattered Clouds
7:15 PM 77.0 °F - 62.6 °F 61% 29.97 in 10.0 mi SSE 19.6 mph - N/A   Clear
7:35 PM 77.0 °F - 59.0 °F 54% 29.98 in 10.0 mi SE 19.6 mph 27.6 mph N/A   Clear
7:55 PM 73.4 °F - 60.8 °F 65% 29.98 in 10.0 mi SSE 18.4 mph 26.5 mph N/A   Clear
8:15 PM 73.4 °F - 60.8 °F 65% 29.98 in 10.0 mi SSE 16.1 mph 21.9 mph N/A   Clear
8:35 PM 71.6 °F - 62.6 °F 73% 29.98 in 10.0 mi SSE 15.0 mph 21.9 mph N/A   Clear
8:55 PM 71.6 °F - 62.6 °F 73% 29.98 in 10.0 mi SSE 13.8 mph 19.6 mph N/A   Clear
9:15 PM 69.8 °F - 62.6 °F 78% 29.99 in 10.0 mi SSE 17.3 mph - N/A   Clear
9:35 PM 69.8 °F - 62.6 °F 78% 30.00 in 10.0 mi SSE 13.8 mph - N/A   Clear
9:55 PM 69.8 °F - 62.6 °F 78% 30.01 in 10.0 mi SSE 13.8 mph - N/A   Clear
10:15 PM 69.8 °F - 62.6 °F 78% 30.00 in 10.0 mi SSE 11.5 mph - N/A   Clear
10:35 PM 69.8 °F - 62.6 °F 78% 30.00 in 10.0 mi SSE 13.8 mph - N/A   Clear
10:55 PM 68.0 °F - 62.6 °F 83% 30.00 in 10.0 mi SSE 12.7 mph - N/A   Clear
11:15 PM 68.0 °F - 62.6 °F 83% 30.00 in 10.0 mi SSE 11.5 mph - N/A   Clear
11:35 PM 68.0 °F - 62.6 °F 83% 30.01 in 10.0 mi SSE 12.7 mph - N/A   Clear
11:55 PM 68.0 °F - 62.6 °F 83% 30.01 in 10.0 mi SSE 13.8 mph - N/A   Clear